QPF
0.00 0.00 0.00 0.00 0.00 0.00 0.00 0.00 0.00 0.00 0.00 0.00 0.00 0.00 0.00 0.00 0.00 0.00 0.00 0.00 0.00 0.00 0.00 0.00 0.00 0.00 0.00 0.00 0.00 0.00 0.00 0.00 0.00 0.00 0.00 0.01 0.02 0.05 0.05 0.03 0.02 0.01 0.00 0.01
0.00 0.00 0.00 0.00 0.00 0.00 0.00 0.00 0.00 0.00 0.00 0.00 0.00 0.00 0.00 0.00 0.00 0.00 0.00 0.00 0.00 0.00 0.00 0.00 0.00 0.00 0.01 0.01 0.00 0.00 0.00 0.00 0.00 0.00 0.00 0.01 0.02 0.05 0.07 0.05 0.04 0.02 0.01 0.02
0.00 0.00 0.00 0.00 0.00 0.00 0.00 0.00 0.00 0.00 0.00 0.00 0.00 0.00 0.00 0.00 0.00 0.00 0.00 0.00 0.00 0.00 0.00 0.00 0.00 0.00 0.00 0.01 0.01 0.00 0.00 0.00 0.00 0.00 0.01 0.02 0.02 0.04 0.08 0.08 0.07 0.05 0.03 0.03
0.00 0.00 0.00 0.00 0.00 0.00 0.00 0.00 0.00 0.00 0.00 0.00 0.00 0.00 0.00 0.00 0.00 0.00 0.00 0.00 0.00 0.00 0.00 0.00 0.00 0.00 0.00 0.00 0.00 0.00 0.00 0.00 0.00 0.00 0.01 0.02 0.02 0.04 0.07 0.08 0.09 0.07 0.05 0.04
0.00 0.00 0.00 0.00 0.00 0.00 0.00 0.00 0.00 0.00 0.00 0.00 0.00 0.00 0.00 0.00 0.00 0.00 0.00 0.00 0.00 0.00 0.00 0.00 0.00 0.00 0.00 0.00 0.00 0.00 0.00 0.00 0.00 0.00 0.01 0.03 0.02 0.03 0.06 0.06 0.07 0.08 0.07 0.05
0.00 0.00 0.00 0.00 0.00 0.00 0.00 0.00 0.00 0.00 0.00 0.00 0.00 0.00 0.00 0.00 0.00 0.00 0.00 0.00 0.00 0.00 0.00 0.00 0.00 0.00 0.00 0.00 0.00 0.00 0.00 0.00 0.00 0.01 0.01 0.03 0.03 0.04 0.05 0.05 0.05 0.05 0.05 0.05
0.00 0.00 0.00 0.00 0.00 0.00 0.00 0.00 0.01 0.01 0.01 0.00 0.00 0.00 0.00 0.00 0.00 0.00 0.00 0.01 0.00 0.00 0.00 0.00 0.00 0.00 0.00 0.00 0.00 0.01 0.01 0.01 0.00 0.00 0.01 0.03 0.04 0.03 0.04 0.03 0.04 0.03 0.04 0.04
0.00 0.00 0.00 0.00 0.00 0.00 0.00 0.00 0.00 0.00 0.00 0.00 0.00 0.00 0.00 0.00 0.00 0.00 0.00 0.01 0.01 0.00 0.00 0.00 0.00 0.00 0.00 0.00 0.00 0.01 0.01 0.02 0.02 0.01 0.01 0.03 0.03 0.03 0.03 0.03 0.04 0.04 0.03 0.02
0.00 0.00 0.00 0.00 0.00 0.00 0.01 0.01 0.00 0.00 0.00 0.00 0.00 0.00 0.00 0.00 0.00 0.00 0.00 0.01 0.02 0.02 0.01 0.00 0.00 0.00 0.00 0.00 0.00 0.00 0.00 0.03 0.05 0.04 0.03 0.03 0.04 0.05 0.03 0.03 0.03 0.04 0.03 0.02
0.00 0.00 0.00 0.00 0.00 0.00 0.00 0.00 0.00 0.01 0.01 0.00 0.00 0.00 0.00 0.00 0.00 0.00 0.00 0.01 0.02 0.02 0.01 0.00 0.00 0.00 0.00 0.00 0.00 0.00 0.00 0.00 0.02 0.05 0.04 0.04 0.05 0.06 0.05 0.05 0.04 0.04 0.03 0.03
0.01 0.01 0.00 0.00 0.00 0.00 0.00 0.01 0.01 0.01 0.00 0.00 0.00 0.00 0.00 0.00 0.00 0.00 0.00 0.01 0.01 0.01 0.01 0.00 0.00 0.00 0.00 0.00 0.00 0.00 0.00 0.00 0.01 0.02 0.02 0.02 0.04 0.06 0.06 0.05 0.03 0.05 0.06 0.06
0.02 0.02 0.01 0.00 0.00 0.00 0.00 0.00 0.01 0.01 0.01 0.00 0.00 0.00 0.00 0.00 0.00 0.00 0.00 0.00 0.00 0.01 0.01 0.01 0.01 0.01 0.01 0.01 0.01 0.01 0.01 0.01 0.02 0.03 0.03 0.02 0.03 0.05 0.04 0.02 0.02 0.03 0.04 0.06
0.02 0.04 0.03 0.01 0.00 0.01 0.01 0.00 0.01 0.01 0.01 0.01 0.00 0.00 0.00 0.00 0.00 0.00 0.00 0.00 0.00 0.01 0.02 0.02 0.02 0.02 0.03 0.03 0.02 0.01 0.01 0.01 0.03 0.04 0.04 0.03 0.03 0.03 0.02 0.01 0.01 0.01 0.02 0.03
0.05 0.06 0.03 0.02 0.01 0.01 0.01 0.00 0.00 0.02 0.02 0.01 0.00 0.00 0.00 0.00 0.00 0.00 0.00 0.00 0.00 0.00 0.01 0.02 0.03 0.03 0.03 0.03 0.03 0.02 0.02 0.03 0.03 0.03 0.03 0.03 0.02 0.02 0.01 0.01 0.01 0.02 0.02 0.02
0.07 0.08 0.04 0.01 0.01 0.01 0.01 0.00 0.00 0.01 0.01 0.00 0.00 0.00 0.00 0.00 0.00 0.00 0.00 0.00 0.00 0.00 0.00 0.01 0.01 0.02 0.03 0.05 0.04 0.03 0.03 0.04 0.04 0.02 0.02 0.03 0.02 0.01 0.01 0.01 0.01 0.02 0.02 0.03
0.06 0.06 0.03 0.02 0.01 0.01 0.01 0.00 0.00 0.00 0.00 0.00 0.00 0.00 0.00 0.00 0.00 0.00 0.00 0.00 0.00 0.01 0.00 0.01 0.01 0.01 0.02 0.02 0.01 0.01 0.01 0.02 0.03 0.02 0.02 0.02 0.02 0.02 0.02 0.01 0.01 0.01 0.02 0.02
0.06 0.05 0.04 0.03 0.01 0.02 0.03 0.00 0.00 0.00 0.00 0.00 0.00 0.00 0.00 0.00 0.00 0.00 0.00 0.01 0.01 0.01 0.01 0.01 0.01 0.02 0.02 0.02 0.01 0.00 0.00 0.00 0.01 0.01 0.01 0.01 0.01 0.01 0.01 0.01 0.01 0.01 0.02 0.03
0.07 0.06 0.06 0.04 0.03 0.04 0.01 0.00 0.00 0.00 0.00 0.00 0.00 0.00 0.00 0.00 0.00 0.00 0.00 0.01 0.01 0.01 0.01 0.02 0.02 0.02 0.02 0.01 0.01 0.00 0.00 0.00 0.00 0.00 0.00 0.00 0.00 0.01 0.01 0.01 0.01 0.01 0.02 0.03
0.04 0.07 0.09 0.07 0.05 0.02 0.00 0.00 0.00 0.00 0.00 0.00 0.00 0.00 0.00 0.00 0.00 0.00 0.00 0.00 0.01 0.01 0.02 0.02 0.02 0.02 0.02 0.01 0.01 0.00 0.00 0.00 0.00 0.00 0.00 0.00 0.00 0.01 0.01 0.01 0.01 0.01 0.02 0.03
0.04 0.06 0.11 0.09 0.06 0.02 0.00 0.00 0.00 0.00 0.00 0.00 0.00 0.00 0.00 0.00 0.01 0.00 0.00 0.01 0.01 0.01 0.01 0.01 0.02 0.02 0.02 0.01 0.01 0.01 0.01 0.01 0.00 0.01 0.01 0.01 0.01 0.01 0.01 0.01 0.01 0.02 0.02 0.02
0.04 0.08 0.10 0.08 0.05 0.02 0.01 0.00 0.00 0.01 0.01 0.00 0.00 0.00 0.01 0.01 0.02 0.01 0.01 0.01 0.01 0.01 0.01 0.01 0.01 0.01 0.01 0.01 0.01 0.01 0.01 0.01 0.00 0.01 0.01 0.02 0.01 0.01 0.01 0.01 0.02 0.02 0.02 0.02
0.03 0.05 0.06 0.05 0.06 0.04 0.01 0.01 0.01 0.01 0.01 0.01 0.00 0.00 0.01 0.01 0.01 0.01 0.01 0.01 0.01 0.01 0.01 0.01 0.01 0.01 0.01 0.01 0.01 0.01 0.01 0.01 0.01 0.02 0.02 0.02 0.02 0.02 0.02 0.01 0.02 0.02 0.02 0.03
0.03 0.04 0.04 0.04 0.05 0.03 0.01 0.01 0.01 0.01 0.00 0.00 0.01 0.00 0.00 0.01 0.01 0.01 0.01 0.01 0.01 0.01 0.01 0.02 0.02 0.01 0.01 0.01 0.01 0.01 0.01 0.01 0.01 0.03 0.03 0.03 0.03 0.03 0.03 0.02 0.03 0.03 0.03 0.03
0.02 0.02 0.02 0.02 0.02 0.02 0.02 0.01 0.01 0.01 0.01 0.00 0.00 0.00 0.00 0.00 0.00 0.00 0.01 0.01 0.01 0.02 0.02 0.02 0.02 0.01 0.01 0.01 0.02 0.02 0.02 0.02 0.03 0.04 0.04 0.04 0.03 0.03 0.03 0.02 0.03 0.03 0.03 0.04
0.02 0.02 0.02 0.02 0.02 0.01 0.02 0.02 0.02 0.01 0.01 0.01 0.01 0.01 0.01 0.00 0.00 0.00 0.00 0.01 0.01 0.02 0.02 0.02 0.02 0.02 0.01 0.01 0.01 0.02 0.02 0.03 0.03 0.03 0.03 0.03 0.03 0.03 0.03 0.03 0.03 0.04 0.04 0.04
0.02 0.02 0.02 0.02 0.02 0.02 0.02 0.02 0.01 0.01 0.02 0.02 0.01 0.01 0.01 0.01 0.01 0.01 0.01 0.01 0.02 0.02 0.01 0.02 0.02 0.01 0.01 0.01 0.01 0.02 0.02 0.02 0.02 0.02 0.02 0.02 0.02 0.02 0.02 0.03 0.03 0.03 0.03 0.04
MSLP
1015.71 1016.52 1017.27 1017.95 1018.54 1019.06 1019.51 1019.88 1020.18 1020.43 1020.64 1020.81 1020.95 1021.09 1021.21 1021.33 1021.44 1021.51 1021.53 1021.45 1021.27 1020.96 1020.50 1019.91 1019.21 1018.41 1017.56 1016.67 1015.77 1014.88 1014.00 1013.14 1012.30 1011.47 1010.67 1009.89 1009.14 1008.42 1007.74 1007.09 1006.50 1005.95 1005.45 1005.02
1016.81 1017.62 1018.34 1018.96 1019.47 1019.88 1020.20 1020.45 1020.66 1020.83 1020.98 1021.12 1021.26 1021.40 1021.54 1021.66 1021.75 1021.79 1021.74 1021.59 1021.31 1020.90 1020.34 1019.65 1018.86 1018.00 1017.09 1016.17 1015.25 1014.35 1013.47 1012.61 1011.76 1010.93 1010.10 1009.28 1008.48 1007.70 1006.96 1006.26 1005.61 1005.03 1004.51 1004.08
1017.87 1018.67 1019.36 1019.91 1020.32 1020.62 1020.82 1020.95 1021.05 1021.13 1021.21 1021.32 1021.44 1021.58 1021.73 1021.87 1021.97 1021.99 1021.92 1021.71 1021.36 1020.86 1020.21 1019.43 1018.56 1017.63 1016.67 1015.71 1014.78 1013.88 1013.00 1012.15 1011.30 1010.45 1009.60 1008.74 1007.88 1007.04 1006.23 1005.47 1004.77 1004.15 1003.61 1003.16
1018.85 1019.63 1020.26 1020.74 1021.07 1021.27 1021.36 1021.38 1021.37 1021.36 1021.38 1021.44 1021.54 1021.68 1021.84 1021.99 1022.11 1022.14 1022.06 1021.84 1021.44 1020.88 1020.16 1019.31 1018.36 1017.36 1016.35 1015.36 1014.41 1013.50 1012.63 1011.78 1010.92 1010.06 1009.16 1008.25 1007.33 1006.41 1005.53 1004.70 1003.96 1003.30 1002.73 1002.27
1019.71 1020.43 1021.01 1021.43 1021.70 1021.82 1021.84 1021.79 1021.70 1021.61 1021.56 1021.56 1021.62 1021.74 1021.91 1022.08 1022.21 1022.27 1022.20 1021.97 1021.56 1020.97 1020.20 1019.29 1018.29 1017.24 1016.18 1015.15 1014.18 1013.25 1012.36 1011.49 1010.61 1009.71 1008.77 1007.79 1006.80 1005.81 1004.85 1003.97 1003.17 1002.47 1001.89 1001.41
1020.40 1021.06 1021.59 1021.98 1022.21 1022.32 1022.31 1022.21 1022.08 1021.94 1021.83 1021.77 1021.78 1021.87 1022.01 1022.17 1022.31 1022.38 1022.34 1022.12 1021.72 1021.12 1020.33 1019.39 1018.34 1017.24 1016.14 1015.07 1014.06 1013.10 1012.18 1011.27 1010.35 1009.40 1008.39 1007.35 1006.28 1005.21 1004.19 1003.25 1002.41 1001.69 1001.09 1000.60
1020.90 1021.51 1022.01 1022.39 1022.65 1022.78 1022.80 1022.72 1022.58 1022.42 1022.26 1022.14 1022.09 1022.11 1022.20 1022.32 1022.45 1022.51 1022.47 1022.28 1021.89 1021.29 1020.50 1019.54 1018.48 1017.34 1016.20 1015.09 1014.03 1013.02 1012.05 1011.09 1010.11 1009.09 1008.02 1006.90 1005.76 1004.64 1003.56 1002.58 1001.71 1000.98 1000.37 999.87
1021.19 1021.76 1022.27 1022.70 1023.02 1023.24 1023.35 1023.34 1023.25 1023.09 1022.90 1022.72 1022.59 1022.52 1022.52 1022.57 1022.63 1022.67 1022.61 1022.41 1022.04 1021.46 1020.68 1019.72 1018.64 1017.48 1016.31 1015.15 1014.03 1012.96 1011.93 1010.90 1009.85 1008.77 1007.63 1006.45 1005.25 1004.08 1002.98 1001.97 1001.10 1000.37 999.77 999.28
1021.30 1021.86 1022.41 1022.92 1023.37 1023.73 1023.98 1024.09 1024.07 1023.95 1023.75 1023.51 1023.28 1023.10 1022.98 1022.91 1022.89 1022.85 1022.75 1022.53 1022.15 1021.58 1020.82 1019.87 1018.79 1017.62 1016.41 1015.21 1014.03 1012.90 1011.79 1010.69 1009.58 1008.42 1007.23 1006.00 1004.77 1003.58 1002.46 1001.46 1000.60 999.89 999.31 998.83
1021.27 1021.86 1022.47 1023.10 1023.71 1024.24 1024.66 1024.92 1025.01 1024.94 1024.73 1024.45 1024.12 1023.81 1023.54 1023.34 1023.19 1023.05 1022.88 1022.63 1022.23 1021.67 1020.91 1019.97 1018.90 1017.72 1016.48 1015.24 1014.01 1012.81 1011.63 1010.46 1009.28 1008.07 1006.83 1005.58 1004.33 1003.14 1002.04 1001.06 1000.23 999.54 999.00 998.54
1021.18 1021.80 1022.51 1023.27 1024.04 1024.75 1025.34 1025.76 1025.96 1025.95 1025.75 1025.42 1025.00 1024.56 1024.16 1023.81 1023.52 1023.28 1023.02 1022.71 1022.29 1021.72 1020.97 1020.04 1018.97 1017.78 1016.53 1015.24 1013.96 1012.70 1011.46 1010.22 1008.99 1007.74 1006.47 1005.21 1003.97 1002.79 1001.71 1000.77 999.97 999.33 998.81 998.39
1021.09 1021.77 1022.56 1023.44 1024.35 1025.21 1025.95 1026.49 1026.79 1026.84 1026.65 1026.29 1025.80 1025.26 1024.74 1024.26 1023.86 1023.51 1023.18 1022.81 1022.36 1021.78 1021.03 1020.11 1019.04 1017.85 1016.57 1015.25 1013.92 1012.60 1011.30 1010.02 1008.73 1007.45 1006.17 1004.91 1003.69 1002.54 1001.49 1000.59 999.82 999.21 998.71 998.31
1021.11 1021.82 1022.67 1023.62 1024.61 1025.56 1026.39 1027.01 1027.37 1027.46 1027.30 1026.92 1026.39 1025.80 1025.20 1024.65 1024.17 1023.75 1023.36 1022.95 1022.48 1021.89 1021.14 1020.23 1019.16 1017.96 1016.66 1015.31 1013.93 1012.56 1011.21 1009.87 1008.56 1007.25 1005.97 1004.71 1003.51 1002.39 1001.37 1000.49 999.75 999.14 998.66 998.26
1021.28 1021.99 1022.85 1023.80 1024.79 1025.75 1026.59 1027.23 1027.61 1027.72 1027.57 1027.21 1026.69 1026.10 1025.49 1024.92 1024.42 1023.98 1023.58 1023.16 1022.68 1022.08 1021.34 1020.43 1019.35 1018.14 1016.83 1015.44 1014.02 1012.61 1011.21 1009.83 1008.48 1007.16 1005.88 1004.63 1003.45 1002.35 1001.35 1000.48 999.74 999.13 998.63 998.21
1021.63 1022.30 1023.09 1023.96 1024.87 1025.74 1026.51 1027.09 1027.44 1027.55 1027.43 1027.11 1026.65 1026.12 1025.58 1025.07 1024.62 1024.21 1023.83 1023.43 1022.96 1022.38 1021.63 1020.72 1019.64 1018.41 1017.07 1015.66 1014.20 1012.74 1011.30 1009.89 1008.52 1007.19 1005.91 1004.68 1003.51 1002.42 1001.44 1000.56 999.81 999.17 998.63 998.18
1022.14 1022.73 1023.38 1024.10 1024.83 1025.53 1026.14 1026.60 1026.89 1026.98 1026.89 1026.65 1026.30 1025.90 1025.48 1025.10 1024.75 1024.44 1024.12 1023.77 1023.32 1022.75 1022.01 1021.09 1020.00 1018.75 1017.39 1015.95 1014.46 1012.97 1011.50 1010.06 1008.68 1007.34 1006.07 1004.85 1003.70 1002.63 1001.65 1000.77 999.99 999.31 998.72 998.22
1022.76 1023.21 1023.68 1024.18 1024.67 1025.13 1025.53 1025.84 1026.03 1026.09 1026.04 1025.90 1025.70 1025.48 1025.25 1025.04 1024.85 1024.66 1024.43 1024.14 1023.73 1023.16 1022.42 1021.49 1020.38 1019.12 1017.73 1016.27 1014.76 1013.25 1011.76 1010.32 1008.93 1007.60 1006.35 1005.16 1004.04 1002.99 1002.02 1001.14 1000.33 999.62 998.98 998.42
1023.39 1023.68 1023.94 1024.18 1024.39 1024.59 1024.76 1024.89 1024.97 1025.02 1025.03 1025.01 1024.99 1024.96 1024.95 1024.94 1024.93 1024.87 1024.75 1024.51 1024.13 1023.57 1022.82 1021.88 1020.75 1019.47 1018.06 1016.58 1015.07 1013.55 1012.06 1010.63 1009.26 1007.97 1006.75 1005.60 1004.52 1003.52 1002.58 1001.71 1000.91 1000.17 999.49 998.88
1023.92 1024.06 1024.10 1024.09 1024.04 1023.97 1023.92 1023.88 1023.88 1023.92 1024.00 1024.12 1024.28 1024.47 1024.67 1024.86 1025.01 1025.08 1025.04 1024.85 1024.49 1023.93 1023.16 1022.20 1021.05 1019.75 1018.35 1016.87 1015.36 1013.86 1012.40 1011.00 1009.67 1008.43 1007.26 1006.18 1005.18 1004.24 1003.36 1002.53 1001.75 1001.01 1000.31 999.66
1024.26 1024.26 1024.12 1023.89 1023.61 1023.34 1023.10 1022.94 1022.88 1022.93 1023.09 1023.35 1023.68 1024.07 1024.46 1024.82 1025.11 1025.28 1025.31 1025.15 1024.78 1024.21 1023.42 1022.44 1021.28 1019.98 1018.58 1017.13 1015.65 1014.18 1012.76 1011.41 1010.15 1008.97 1007.89 1006.90 1005.98 1005.13 1004.34 1003.58 1002.85 1002.15 1001.46 1000.80
1024.33 1024.23 1023.96 1023.58 1023.14 1022.72 1022.37 1022.14 1022.06 1022.15 1022.40 1022.79 1023.28 1023.82 1024.37 1024.86 1025.24 1025.48 1025.54 1025.38 1025.01 1024.41 1023.61 1022.61 1021.45 1020.17 1018.80 1017.37 1015.94 1014.53 1013.17 1011.88 1010.69 1009.60 1008.62 1007.72 1006.92 1006.18 1005.49 1004.83 1004.18 1003.54 1002.89 1002.24
1024.09 1023.93 1023.59 1023.13 1022.61 1022.13 1021.74 1021.51 1021.47 1021.62 1021.97 1022.47 1023.08 1023.74 1024.39 1024.96 1025.40 1025.67 1025.73 1025.57 1025.18 1024.57 1023.75 1022.76 1021.61 1020.36 1019.03 1017.66 1016.29 1014.94 1013.64 1012.43 1011.32 1010.32 1009.43 1008.65 1007.96 1007.34 1006.77 1006.22 1005.67 1005.11 1004.51 1003.89
1023.52 1023.36 1023.01 1022.54 1022.03 1021.57 1021.22 1021.05 1021.08 1021.33 1021.77 1022.37 1023.07 1023.80 1024.51 1025.12 1025.58 1025.84 1025.89 1025.72 1025.32 1024.70 1023.90 1022.92 1021.82 1020.62 1019.34 1018.03 1016.72 1015.44 1014.21 1013.07 1012.03 1011.11 1010.31 1009.63 1009.05 1008.55 1008.10 1007.66 1007.22 1006.74 1006.22 1005.64
1022.66 1022.52 1022.21 1021.81 1021.38 1021.02 1020.78 1020.71 1020.86 1021.21 1021.75 1022.43 1023.19 1023.96 1024.69 1025.30 1025.75 1026.00 1026.04 1025.86 1025.46 1024.86 1024.09 1023.16 1022.11 1020.97 1019.76 1018.52 1017.26 1016.04 1014.86 1013.78 1012.80 1011.94 1011.22 1010.62 1010.14 1009.74 1009.40 1009.08 1008.73 1008.34 1007.89 1007.37
1021.54 1021.44 1021.21 1020.93 1020.65 1020.44 1020.36 1020.46 1020.74 1021.22 1021.85 1022.59 1023.38 1024.17 1024.89 1025.49 1025.91 1026.15 1026.18 1026.00 1025.62 1025.07 1024.35 1023.49 1022.51 1021.44 1020.30 1019.11 1017.91 1016.73 1015.59 1014.54 1013.61 1012.80 1012.13 1011.60 1011.19 1010.88 1010.63 1010.40 1010.14 1009.83 1009.45 1008.99
1020.21 1020.16 1020.05 1019.91 1019.82 1019.81 1019.93 1020.22 1020.67 1021.27 1021.99 1022.78 1023.60 1024.38 1025.08 1025.65 1026.05 1026.27 1026.31 1026.16 1025.83 1025.33 1024.68 1023.90 1023.00 1022.00 1020.92 1019.78 1018.62 1017.47 1016.36 1015.33 1014.41 1013.63 1013.00 1012.52 1012.17 1011.93 1011.75 1011.59 1011.41 1011.17 1010.85 1010.44
Thickness
5586 5581 5582 5588 5590 5594 5590 5586 5590 5595 5597 5595 5595 5604 5616 5618 5614 5612 5610 5609 5610 5612 5614 5612 5609 5606 5603 5600 5598 5596 5595 5595 5593 5592 5590 5589 5588 5586 5585 5584 5583 5582 5582 5583
5572 5575 5585 5584 5583 5583 5582 5581 5583 5587 5589 5589 5587 5595 5608 5612 5613 5614 5613 5610 5608 5606 5606 5604 5602 5598 5596 5594 5591 5590 5589 5588 5586 5585 5583 5581 5579 5578 5577 5576 5575 5574 5572 5572
5571 5578 5581 5579 5576 5575 5575 5574 5578 5579 5578 5576 5577 5596 5608 5613 5610 5612 5611 5609 5606 5605 5602 5598 5595 5592 5589 5587 5586 5586 5583 5581 5580 5578 5576 5573 5570 5569 5568 5568 5567 5566 5563 5563
5560 5569 5572 5572 5571 5571 5570 5574 5573 5571 5564 5558 5564 5572 5601 5604 5603 5608 5607 5602 5600 5600 5597 5594 5590 5587 5584 5582 5580 5578 5576 5575 5573 5570 5568 5565 5562 5561 5561 5560 5558 5557 5555 5554
5555 5561 5564 5565 5568 5567 5563 5561 5558 5556 5550 5545 5549 5551 5587 5594 5601 5607 5605 5600 5597 5594 5591 5589 5586 5583 5580 5576 5573 5571 5569 5567 5565 5563 5560 5557 5554 5553 5552 5551 5549 5548 5547 5546
5547 5553 5556 5559 5558 5557 5549 5544 5538 5529 5530 5542 5548 5544 5574 5584 5598 5604 5602 5596 5592 5588 5585 5583 5580 5576 5572 5568 5565 5563 5561 5560 5558 5555 5552 5549 5547 5545 5543 5542 5541 5540 5539 5538
5539 5543 5546 5548 5545 5543 5544 5536 5529 5532 5520 5534 5540 5540 5569 5592 5593 5594 5595 5591 5585 5581 5577 5574 5571 5568 5565 5561 5559 5556 5554 5552 5550 5548 5545 5543 5541 5538 5536 5535 5533 5531 5530 5530
5524 5529 5536 5539 5542 5536 5534 5538 5532 5535 5528 5532 5528 5534 5573 5588 5587 5585 5584 5582 5578 5573 5569 5568 5566 5562 5559 5556 5552 5548 5546 5544 5542 5541 5539 5537 5534 5531 5530 5528 5526 5524 5523 5522
5518 5523 5528 5532 5535 5533 5524 5520 5523 5507 5499 5511 5524 5531 5560 5582 5580 5579 5577 5573 5570 5567 5564 5562 5559 5555 5552 5548 5545 5542 5539 5537 5535 5533 5532 5530 5527 5525 5522 5520 5518 5517 5515 5514
5513 5509 5515 5519 5523 5520 5522 5512 5502 5502 5511 5522 5531 5533 5554 5576 5578 5574 5569 5565 5563 5560 5557 5555 5551 5548 5545 5542 5538 5535 5532 5530 5528 5525 5523 5523 5520 5518 5515 5513 5511 5509 5507 5506
5504 5497 5498 5505 5508 5508 5506 5505 5502 5491 5497 5505 5516 5545 5563 5564 5567 5563 5559 5557 5554 5553 5550 5547 5544 5541 5537 5533 5530 5528 5525 5523 5520 5518 5516 5514 5512 5509 5507 5504 5503 5501 5500 5497
5491 5485 5481 5492 5497 5500 5503 5501 5493 5500 5490 5481 5492 5533 5564 5556 5554 5553 5551 5549 5547 5545 5542 5539 5536 5532 5529 5526 5523 5521 5519 5516 5514 5511 5508 5505 5502 5500 5498 5496 5495 5493 5492 5490
5483 5479 5479 5487 5484 5483 5487 5488 5486 5483 5475 5464 5483 5532 5553 5547 5548 5545 5543 5540 5538 5537 5535 5531 5527 5524 5521 5519 5517 5514 5511 5508 5505 5502 5498 5495 5492 5490 5489 5488 5487 5485 5483 5482
5481 5473 5482 5492 5495 5481 5476 5478 5477 5478 5476 5470 5487 5522 5542 5544 5542 5539 5535 5532 5529 5528 5526 5522 5519 5516 5514 5512 5509 5506 5503 5500 5497 5493 5489 5486 5484 5482 5480 5480 5478 5476 5474 5472
5468 5463 5466 5473 5478 5474 5478 5480 5474 5477 5483 5487 5503 5507 5532 5535 5530 5527 5524 5521 5520 5519 5518 5515 5512 5509 5505 5503 5501 5499 5495 5491 5488 5483 5480 5477 5476 5474 5473 5471 5470 5468 5466 5465
5452 5452 5454 5459 5465 5468 5473 5476 5477 5479 5484 5486 5495 5506 5522 5521 5518 5516 5514 5513 5513 5513 5511 5509 5506 5502 5499 5496 5494 5490 5487 5483 5479 5475 5472 5470 5468 5467 5465 5464 5462 5460 5459 5457
5434 5439 5444 5448 5453 5458 5466 5481 5481 5479 5482 5487 5496 5514 5511 5508 5508 5507 5505 5505 5505 5506 5504 5502 5499 5496 5492 5489 5486 5482 5479 5475 5471 5468 5465 5463 5461 5459 5458 5457 5455 5453 5451 5449
5428 5430 5429 5431 5439 5451 5485 5487 5487 5485 5487 5487 5495 5501 5500 5501 5501 5500 5499 5497 5497 5497 5496 5493 5490 5487 5484 5481 5477 5474 5470 5467 5463 5461 5459 5456 5454 5452 5451 5449 5447 5446 5444 5443
5428 5424 5421 5424 5431 5446 5471 5474 5472 5472 5478 5483 5485 5489 5488 5488 5489 5491 5493 5491 5490 5488 5486 5483 5481 5478 5475 5472 5469 5466 5462 5458 5455 5453 5451 5449 5447 5446 5444 5443 5441 5440 5438 5437
5418 5420 5417 5417 5429 5444 5470 5466 5464 5465 5468 5477 5476 5479 5477 5474 5474 5484 5485 5481 5480 5478 5476 5473 5471 5468 5465 5463 5460 5457 5453 5450 5447 5445 5443 5442 5440 5438 5437 5436 5434 5433 5431 5430
5410 5410 5414 5414 5420 5435 5450 5451 5457 5458 5467 5470 5467 5468 5466 5465 5469 5472 5470 5469 5468 5467 5465 5463 5461 5458 5456 5453 5450 5447 5445 5442 5440 5438 5436 5434 5433 5431 5430 5428 5427 5425 5424 5424
5406 5404 5404 5406 5414 5431 5441 5438 5442 5449 5454 5455 5456 5457 5456 5455 5456 5457 5457 5457 5456 5455 5454 5452 5450 5448 5445 5442 5440 5438 5436 5434 5432 5430 5428 5427 5425 5424 5423 5421 5420 5418 5417 5416
5398 5405 5404 5409 5423 5429 5429 5433 5436 5438 5440 5443 5444 5444 5444 5444 5444 5445 5445 5444 5443 5443 5442 5441 5439 5437 5435 5432 5430 5428 5427 5425 5423 5421 5420 5419 5418 5416 5414 5413 5412 5411 5410 5409
5388 5394 5396 5399 5411 5418 5420 5422 5424 5427 5428 5430 5431 5432 5433 5433 5433 5433 5433 5433 5432 5432 5431 5430 5428 5427 5425 5423 5421 5419 5417 5416 5414 5413 5412 5411 5410 5409 5408 5406 5405 5404 5402 5402
5388 5386 5388 5393 5402 5407 5412 5413 5415 5417 5418 5419 5419 5421 5422 5422 5422 5422 5422 5422 5421 5421 5420 5419 5417 5416 5415 5413 5412 5410 5408 5407 5406 5405 5404 5403 5403 5401 5401 5400 5398 5397 5396 5394
5379 5382 5386 5397 5402 5401 5405 5407 5407 5408 5410 5410 5410 5410 5411 5411 5410 5410 5410 5410 5410 5409 5409 5408 5407 5406 5404 5403 5402 5400 5399 5398 5397 5397 5396 5395 5394 5394 5394 5394 5394 5394 5391 5392